TimeEDT,TemperatureF,Dew PointF,Humidity,Sea Level PressureIn,VisibilityMPH,Wind Direction,Wind SpeedMPH,Gust SpeedMPH,PrecipitationIn,Events,Conditions,WindDirDegrees,DateUTC
12:15 AM,51.8,46.4,82,29.80,10.0,West,10.4,-,N/A,,Overcast,260,2012-10-15 04:15:00
12:35 AM,50.0,46.4,87,29.80,10.0,West,11.5,19.6,N/A,,Overcast,280,2012-10-15 04:35:00
1:15 AM,50.0,46.4,87,29.80,10.0,West,11.5,-,N/A,,Overcast,260,2012-10-15 05:15:00
1:35 AM,50.0,46.4,87,29.80,10.0,West,9.2,18.4,N/A,,Overcast,280,2012-10-15 05:35:00
1:55 AM,50.0,46.4,87,29.80,10.0,West,10.4,18.4,N/A,,Overcast,270,2012-10-15 05:55:00
2:15 AM,50.0,46.4,87,29.80,10.0,West,10.4,-,N/A,,Overcast,270,2012-10-15 06:15:00
2:35 AM,50.0,46.4,87,29.80,10.0,West,9.2,-,N/A,,Overcast,280,2012-10-15 06:35:00
2:55 AM,50.0,46.4,87,29.80,10.0,West,9.2,17.3,N/A,,Overcast,270,2012-10-15 06:55:00
3:15 AM,50.0,46.4,87,29.80,10.0,West,13.8,19.6,N/A,,Overcast,270,2012-10-15 07:15:00
3:35 AM,50.0,46.4,87,29.79,10.0,West,9.2,-,N/A,,Overcast,270,2012-10-15 07:35:00
3:55 AM,46.4,46.4,100,29.80,4.0,West,11.5,20.7,N/A,Rain,Light Rain,280,2012-10-15 07:55:00
4:15 AM,46.4,44.6,93,29.80,10.0,West,12.7,18.4,N/A,,Overcast,280,2012-10-15 08:15:00
4:35 AM,46.4,44.6,93,29.80,10.0,West,10.4,17.3,N/A,,Overcast,280,2012-10-15 08:35:00
4:55 AM,46.4,44.6,93,29.80,10.0,West,10.4,16.1,N/A,,Overcast,280,2012-10-15 08:55:00
5:15 AM,46.4,44.6,93,29.81,10.0,West,9.2,17.3,N/A,,Overcast,280,2012-10-15 09:15:00
5:55 AM,46.4,44.6,93,29.81,10.0,WNW,8.1,-,N/A,,Overcast,290,2012-10-15 09:55:00
6:15 AM,46.4,44.6,93,29.82,10.0,West,8.1,-,N/A,,Overcast,280,2012-10-15 10:15:00
6:35 AM,46.4,44.6,93,29.83,10.0,West,11.5,-,N/A,,Overcast,280,2012-10-15 10:35:00
6:55 AM,46.4,44.6,93,29.83,10.0,West,9.2,-,N/A,,Overcast,270,2012-10-15 10:55:00
7:15 AM,46.4,42.8,87,29.84,10.0,West,6.9,-,N/A,,Overcast,280,2012-10-15 11:15:00
7:35 AM,46.4,42.8,87,29.85,10.0,West,8.1,17.3,N/A,,Overcast,280,2012-10-15 11:35:00
8:35 AM,46.4,42.8,87,29.87,10.0,West,8.1,-,N/A,,Overcast,270,2012-10-15 12:35:00
8:55 AM,46.4,42.8,87,29.88,10.0,West,10.4,-,N/A,,Overcast,260,2012-10-15 12:55:00
9:15 AM,46.4,42.8,87,29.88,10.0,West,8.1,-,N/A,,Overcast,280,2012-10-15 13:15:00
9:35 AM,44.6,42.8,93,29.89,10.0,West,9.2,-,N/A,,Overcast,270,2012-10-15 13:35:00
9:55 AM,44.6,42.8,93,29.89,10.0,West,9.2,-,N/A,,Overcast,270,2012-10-15 13:55:00
10:15 AM,44.6,42.8,93,29.90,10.0,West,8.1,-,N/A,,Overcast,280,2012-10-15 14:15:00
10:35 AM,46.4,42.8,87,29.91,10.0,West,10.4,-,N/A,,Overcast,280,2012-10-15 14:35:00
10:55 AM,46.4,42.8,87,29.91,10.0,West,10.4,-,N/A,,Overcast,260,2012-10-15 14:55:00
11:15 AM,46.4,42.8,87,29.91,10.0,WSW,12.7,-,N/A,,Overcast,250,2012-10-15 15:15:00
11:35 AM,48.2,42.8,82,29.92,10.0,West,10.4,-,N/A,,Overcast,260,2012-10-15 15:35:00
11:55 AM,50.0,42.8,76,29.92,10.0,West,9.2,-,N/A,,Overcast,270,2012-10-15 15:55:00
12:35 PM,51.8,41.0,67,29.92,10.0,West,8.1,-,N/A,,Mostly Cloudy,280,2012-10-15 16:35:00
12:55 PM,51.8,41.0,67,29.92,10.0,West,9.2,16.1,N/A,,Mostly Cloudy,270,2012-10-15 16:55:00
1:15 PM,51.8,41.0,67,29.93,10.0,West,8.1,-,N/A,,Mostly Cloudy,280,2012-10-15 17:15:00
1:35 PM,51.8,41.0,67,29.93,10.0,West,9.2,18.4,N/A,,Overcast,280,2012-10-15 17:35:00
1:55 PM,53.6,41.0,62,29.93,10.0,West,12.7,18.4,N/A,,Mostly Cloudy,280,2012-10-15 17:55:00
2:15 PM,53.6,41.0,62,29.93,10.0,WNW,10.4,-,N/A,,Mostly Cloudy,290,2012-10-15 18:15:00
2:35 PM,53.6,39.2,58,29.93,10.0,West,9.2,19.6,N/A,,Mostly Cloudy,280,2012-10-15 18:35:00
2:55 PM,55.4,37.4,51,29.93,10.0,WNW,10.4,17.3,N/A,,Mostly Cloudy,290,2012-10-15 18:55:00
3:15 PM,55.4,37.4,51,29.92,10.0,West,9.2,16.1,N/A,,Mostly Cloudy,280,2012-10-15 19:15:00
3:35 PM,55.4,37.4,51,29.93,10.0,NW,9.2,-,N/A,,Scattered Clouds,310,2012-10-15 19:35:00
3:55 PM,55.4,37.4,51,29.93,10.0,WNW,8.1,-,N/A,,Scattered Clouds,290,2012-10-15 19:55:00
4:15 PM,55.4,37.4,51,29.93,10.0,NW,6.9,-,N/A,,Scattered Clouds,310,2012-10-15 20:15:00
4:35 PM,55.4,37.4,51,29.94,10.0,NNW,6.9,-,N/A,,Clear,340,2012-10-15 20:35:00
4:55 PM,55.4,37.4,51,29.94,10.0,NW,5.8,-,N/A,,Clear,310,2012-10-15 20:55:00
5:15 PM,55.4,37.4,51,29.94,10.0,NW,6.9,-,N/A,,Clear,310,2012-10-15 21:15:00
5:35 PM,55.4,37.4,51,29.94,10.0,NW,6.9,-,N/A,,Clear,320,2012-10-15 21:35:00
5:55 PM,55.4,37.4,51,29.94,10.0,NNW,5.8,-,N/A,,Clear,330,2012-10-15 21:55:00
6:15 PM,53.6,37.4,54,29.94,10.0,NNW,8.1,-,N/A,,Clear,340,2012-10-15 22:15:00
6:35 PM,51.8,37.4,58,29.94,10.0,NNW,4.6,-,N/A,,Clear,330,2012-10-15 22:35:00
7:15 PM,50.0,37.4,62,29.95,7.0,NNE,3.5,-,N/A,,Clear,20,2012-10-15 23:15:00
7:35 PM,50.0,37.4,62,29.94,10.0,NE,3.5,-,N/A,,Clear,50,2012-10-15 23:35:00
7:55 PM,46.4,37.4,71,29.95,10.0,Calm,Calm,-,N/A,,Clear,0,2012-10-15 23:55:00
8:15 PM,46.4,37.4,71,29.96,10.0,Calm,Calm,-,N/A,,Clear,0,2012-10-16 00:15:00
8:35 PM,44.6,37.4,76,29.96,10.0,Calm,Calm,-,N/A,,Clear,0,2012-10-16 00:35:00
8:55 PM,42.8,37.4,81,29.96,10.0,Calm,Calm,-,N/A,,Clear,0,2012-10-16 00:55:00
9:15 PM,44.6,37.4,76,29.96,10.0,Calm,Calm,-,N/A,,Clear,0,2012-10-16 01:15:00
9:35 PM,42.8,37.4,81,29.97,10.0,Calm,Calm,-,N/A,,Clear,0,2012-10-16 01:35:00
9:55 PM,42.8,37.4,81,29.98,10.0,Calm,Calm,-,N/A,,Clear,0,2012-10-16 01:55:00
10:15 PM,41.0,37.4,87,29.98,10.0,Calm,Calm,-,N/A,,Clear,0,2012-10-16 02:15:00
10:35 PM,41.0,37.4,87,29.97,10.0,Calm,Calm,-,N/A,,Clear,0,2012-10-16 02:35:00
10:55 PM,41.0,37.4,87,29.97,10.0,Calm,Calm,-,N/A,,Clear,0,2012-10-16 02:55:00
11:15 PM,39.2,37.4,93,29.97,7.0,Calm,Calm,-,N/A,,Clear,0,2012-10-16 03:15:00
11:35 PM,39.2,37.4,93,29.97,7.0,East,3.5,-,N/A,,Clear,80,2012-10-16 03:35:00
11:55 PM,41.0,37.4,87,29.98,7.0,Calm,Calm,-,N/A,,Clear,0,2012-10-16 03:55:00